Retour au catalogue

NOAA 16 DEB

ActifSSO
NORAD 41049·DEBRIS·🇺🇸 United States

Lancé Sep 21, 2000 depuis Vandenberg Space Force Base

Loading…

Prochains Passages (prochaines 24 heures)

TLE

FraisSource: Space-Track

Époque: Sep 14, 2026, 14:39 UTC

1 41049U 00055G   26257.61046504  .00001851  00000-0  76882-3 0  9995
2 41049  98.6282 318.4668 0004887 255.8155 104.2484 14.27646502558445

Suivez NOAA 16 DEB en temps réel avec AllMySat

Download on the App Store